Location: Rounton
(54.4000°N, 1.3500°W)
Time: 12:41:35
(UTC+00:00)

Transit 2A - Pass Details

Date: 02 December 2021
Orbit: 591 x 967 km, 66.7° (Epoch: 17 January)

Event Time Altitude Azimuth Distance (km) Brightness Sun altitude
Rises 01:28:27 0° 219° (SW) 3,350 - -53.1°
Reaches altitude 10° 01:30:48 10° 220° (SW) 2,473 - -52.9°
Maximum altitude 01:36:36 90° 148° (SSE) 914 - -52.3°
Drops below altitude 10° 01:42:56 10° 42° (NE) 2,683 - -51.7°
Exits shadow 01:43:18 - 42° (NE) 2,820 9.4 -51.7°
Sets 01:45:34 0° 43° (NE) 3,653 10.1 -51.5°
